#timestamp,LO_Frequency,Hit,StdDev 
1612558815.8,286046974.4,N
1612558835.6,286046977.6,N
1612558855.4,286046984.4,N
1612558875.3,286046984.9,N
1612558895.1,286046985.6,N
1612558915.9,286046998.0,N
1612558935.7,286046999.6,N
1612558955.5,286047002.3,N
1612558975.4,286047006.2,N
1612558995.2,286047008.6,N
1612559015.0,286047008.3,N
1612559016.0,286047008.3,N
1612559035.8,286047002.9,N
1612559055.6,286047013.5,N
1612559075.5,286047010.3,N
1612559095.3,286047005.7,N
1612559115.1,286047005.3,N
1612559135.9,286047005.5,N
1612559155.7,286047010.3,N
1612559175.6,286047012.2,N
1612559195.4,286047013.1,N
1612559215.2,286047017.3,N
1612559235.1,286047023.6,N
1612559236.0,286047023.6,N
1612559255.8,286047024.3,N
1612559275.7,286047026.8,N
1612559295.5,286047020.6,N
1612559315.3,286047011.3,N
1612559335.2,286047010.9,N
1612559355.0,286047017.7,N
1612559355.9,286047017.7,N
1612559375.8,286047024.3,N
1612559395.6,286047023.4,N
1612559415.4,286047014.3,N
1612559435.3,286047011.9,N
1612559455.1,286047010.0,N
1612559475.8,286047006.7,N
1612559495.7,286047001.3,N
1612559515.5,286047004.0,N
1612559535.4,286047003.0,N
1612559555.2,286046999.4,N
1612559575.0,286046996.3,N
1612559575.9,286046996.3,N
1612559595.8,286046994.3,N
1612559615.6,286046993.1,N
1612559635.5,286046991.3,N
1612559655.3,286046993.7,N
1612559675.1,286047005.9,N
1612559695.9,286047003.8,N
1612559715.7,286046997.7,N
1612559735.5,286046992.4,N
1612559755.4,286046996.4,N
1612559775.2,286046997.6,N
1612559795.1,286046999.9,N
1612559796.0,286046999.9,N
1612559815.8,286047004.0,N
1612559835.6,286047007.0,N
1612559855.5,286046998.2,N
1612559875.3,286046992.4,N
1612559895.2,286046985.7,N
1612559915.9,286046994.4,N
1612559935.7,286046986.2,N
1612559955.6,286046977.1,N
1612559975.4,286046976.2,Y
1612559995.3,286046983.8,P
1612560015.1,286046982.2,N
1612560016.0,286046982.2,N
1612560035.8,286046984.5,N
1612560055.7,286046984.0,N
1612560075.5,286046980.7,Y
1612560095.4,286047000.5,P
1612560115.2,286047011.9,N
1612560135.0,286047023.1,N
1612560135.9,286047023.1,N
1612560155.8,286047025.8,N
1612560175.6,286047032.3,N
1612560195.5,286047038.5,N
1612560215.3,286047050.5,Y
1612560235.1,286047039.4,P
1612560255.9,286047038.9,P
1612560275.7,286047039.3,P
1612560295.6,286047040.5,Y
1612560315.4,286047007.9,P
1612560335.2,286047011.7,N
1612560355.1,286047013.6,N
1612560356.0,286047013.6,N
1612560375.8,286047017.0,N
1612560395.7,286047020.3,N
1612560415.5,286047021.0,N
1612560435.3,286047025.0,Y
1612560455.2,286047003.6,P
1612560475.0,286047002.7,N
1612560475.9,286047002.7,N
1612560495.8,286046999.3,N
1612560515.6,286047000.5,N
1612560535.4,286046994.3,N
1612560555.3,286046988.0,N
1612560575.1,286046983.5,N
1612560595.9,286046986.7,N
1612560615.7,286046988.8,N
1612560635.5,286046990.0,N
1612560655.4,286046993.9,N
1612560675.2,286046992.1,N
1612560695.0,286046994.2,N
1612560695.9,286046994.2,N
1612560715.8,286046988.5,N
1612560735.6,286046989.7,N
1612560755.5,286046987.4,N
1612560775.3,286046974.7,Y
1612560795.1,286046968.7,P
1612560815.9,286046970.6,N
1612560835.7,286046978.9,N
1612560855.5,286046974.4,N
1612560875.4,286046965.5,Y
1612560895.2,286046986.9,P
1612560915.1,286046988.5,N
1612560916.0,286046988.5,N
1612560935.8,286046991.6,N
1612560955.6,286046990.1,N
1612560975.5,286046992.6,N
1612560995.3,286046991.0,N
1612561015.2,286046989.3,N
1612561035.9,286046987.5,N
1612561055.7,286046988.2,N
1612561075.6,286046991.5,N
1612561095.4,286046995.4,N
1612561115.2,286046994.7,N
1612561135.1,286046996.1,N
1612561136.0,286046996.1,N
1612561155.8,286046994.2,N
1612561175.7,286046995.2,N
1612561195.5,286046996.2,N
1612561215.3,286046991.4,N
1612561235.2,286046990.1,N
1612561255.0,286046995.4,N
1612561255.9,286046995.4,N
1612561275.8,286046997.8,N
1612561295.6,286046997.8,N
1612561315.4,286046995.0,N
1612561335.3,286046991.5,N
1612561355.1,286046996.4,N
1612561375.8,286046999.3,N
1612561395.7,286046998.9,N
1612561415.5,286046999.4,N
1612561435.4,286047001.2,N
1612561455.2,286047002.3,N
1612561475.0,286047002.6,N
1612561475.9,286047002.6,N
1612561495.8,286047001.2,N
1612561515.6,286047002.6,N
1612561535.4,286046998.3,N
1612561555.3,286046997.8,N
1612561575.1,286046993.0,N
1612561595.9,286046987.7,Y
1612561615.7,286046989.5,P
1612561635.5,286046990.8,N
1612561655.4,286046993.5,N
1612561675.2,286046994.7,N
1612561695.1,286046990.1,Y
1612561696.0,286046990.1,P
1612561715.8,286046995.0,P
1612561735.6,286046992.1,P
1612561755.5,286046990.1,Y
1612561775.3,286046990.7,P
1612561795.1,286046992.2,P
1612561815.9,286046985.6,P
1612561835.7,286046980.8,Y
1612561855.6,286046992.4,P
1612561875.4,286046988.4,P
1612561895.2,286046990.2,P
1612561915.1,286046979.1,Y
1612561916.0,286046979.1,P
1612561935.8,286046987.6,N
1612561955.7,286046994.5,N
1612561975.5,286046996.2,N
1612561995.3,286046994.2,N
1612562015.2,286046985.4,N
1612562035.9,286046986.4,N
1612562055.7,286046991.1,N
1612562075.6,286046995.8,N
1612562095.4,286046990.4,N
1612562115.3,286046992.7,N
1612562135.1,286046996.2,N
1612562136.0,286046996.2,N
1612562155.8,286046988.6,N
1612562175.7,286046987.1,N
1612562195.5,286046997.4,N
1612562215.3,286046989.7,N
1612562235.2,286046981.3,Y
1612562255.0,286046995.1,P
1612562256.0,286046995.1,N
1612562275.8,286046992.5,P
1612562295.6,286046985.4,Y
1612562315.5,286046993.4,P
1612562335.3,286046993.5,P
1612562355.1,286046991.1,P
1612562375.9,286046995.6,Y
1612562395.7,286046999.6,P
